Weather observations for the past three days for
March Air Reserve Base
Imperial (Metric)
Date Time (pdt) Wind (mph) Vis. (mi.) Weather Sky Cond. Temperature (ºF) Relative Humidity Wind Chill (°F) Heat Index (°F) Pressure Precipitation (in)
Air Dwpt 6 hour altimeter (in) sea level (mb) 1 hr 3 hr 6 hr
Max. Min.
31 07:55 Calm 10.00 Fair CLR 69.4 62.2 78% 29.93 1012.1
31 06:55 SE 3 10.00 Fair CLR 66 61.7 86% 29.92 1011.8
31 05:55 SE 6 10.00 Fair CLR 64.8 59.5 83% 29.9 1011.1
31 04:55 Calm 10.00 Fair CLR 66.9 59.9 74.1 66.4 78% 29.9 1010.9
31 03:55 SE 3 10.00 Fair CLR 66.6 59.5 78% 29.9 1010.9
31 02:55 Calm 10.00 Fair CLR 68.2 59.2 73% 29.9 1010.8
31 01:55 SE 3 10.00 Fair CLR 69.1 60.4 74% 29.9 1010.8
31 00:55 Calm 10.00 Fair CLR 70 60.1 71% 29.91 1011.2
30 23:55 Calm 10.00 Fair CLR 73.2 60.8 65% 29.91 1011.1
30 22:55 NW 5 10.00 Fair CLR 73.9 61.3 93.4 73.8 65% 29.9 1010.8
30 21:55 Calm 10.00 Fair CLR 75 60.6 61% 77 29.9 1010.9
30 20:55 Calm 10.00 Fair CLR 79.2 56.5 46% 80 29.88 1010.2
30 18:55 NW 9 10.00 Fair CLR 85.8 56.5 37% 85 29.84 1008.9
30 17:55 NW 12 10.00 Fair CLR 90.5 56.5 32% 89 29.84 1008.9
30 16:55 NW 13 10.00 Fair CLR 93.4 58.1 97.5 91 31% 92 29.83 1008.4
30 15:55 NW 15 10.00 Fair CLR 93.4 59.9 33% 93 29.84 1008.8
30 14:55 NW 13 10.00 Fair CLR 96.8 58.3 28% 96 29.85 1009.0
30 13:55 NW 10 10.00 Fair CLR 97.3 54.5 24% 95 29.87 1009.7
30 12:55 NW 3 10.00 Fair CLR 94.5 56.3 28% 93 29.88 1010.0
30 11:55 S 5 10.00 Fair CLR 94.3 50.7 23% 91 29.89 1010.3
30 10:55 S 3 10.00 Fair CLR 91.2 53.4 91.2 68.7 28% 89 29.91 1011.0
30 09:55 SE 8 10.00 Fair CLR 86.2 56.1 36% 85 29.91 1011.1
30 08:55 SE 3 10.00 Fair CLR 80.8 58.6 47% 81 29.91 1011.2
30 06:55 Calm 10.00 Fair CLR 72 60.4 67% 29.91 1011.2
30 05:55 Calm 10.00 Fair CLR 68.9 59 71% 29.89 1010.5
30 04:55 Calm 10.00 Fair CLR 72.9 59 80.2 71.4 62% 29.88 1010.0
30 03:55 NW 5 10.00 Fair CLR 71.8 58.5 63% 29.88 1010.0
30 02:55 Calm 10.00 Fair CLR 74.8 58.6 57% 29.88 1009.9
30 01:55 SE 5 10.00 Fair CLR 74.8 58.6 57% 29.87 1009.6
30 00:55 S 5 10.00 Fair CLR 76.5 59 55% 78 29.88 1009.9
29 23:55 S 3 10.00 Fair CLR 79.7 58.3 48% 80 29.88 1009.9
29 22:55 W 3 10.00 Fair CLR 80.2 59.4 97.9 80.1 49% 81 29.88 1009.9
29 21:55 NW 5 10.00 Fair CLR 81.3 59.2 47% 82 29.88 1010.0
29 20:55 NW 10 10.00 Fair CLR 83.5 58.6 43% 83 29.87 1009.7
29 19:55 N 8 10.00 Fair CLR 87.3 56.3 35% 86 29.84 1008.7
29 18:55 NW 9 10.00 Fair CLR 91.8 52 26% 89 29.83 1008.4
29 17:55 NW 14 10.00 Fair CLR 95.4 51.6 23% 93 29.84 1008.7
29 16:55 NW 14 10.00 Fair CLR 97.7 52.3 101.1 94.5 22% 95 29.83 1008.2
29 15:55 NW 15 10.00 Fair CLR 99.1 52.3 21% 97 29.84 1008.6
29 14:55 NW 16 10.00 Fair CLR 100.6 55.9 23% 99 29.86 1009.2
29 13:55 NW 14 10.00 Fair CLR 101.1 55.2 22% 100 29.87 1009.5
29 12:55 E 7 10.00 Fair CLR 98.8 52 21% 96 29.88 1009.9
29 11:55 Calm 10.00 Fair CLR 96.1 53.4 24% 94 29.91 1010.9
29 10:55 Calm 10.00 Fair CLR 94.5 53.1 94.5 73.8 25% 92 29.93 1011.6
29 09:55 S 5 10.00 Fair CLR 89.8 58.5 35% 89 29.94 1012.0
29 08:55 SE 6 10.00 Fair CLR 85.6 58.5 40% 85 29.93 1011.7
29 07:55 Calm 10.00 Fair CLR 81.1 62.4 53% 82 29.93 1011.7
29 06:55 Calm 10.00 Fair CLR 76.3 61.9 61% 78 29.91 1011.0
29 05:55 Calm 10.00 Fair CLR 74.3 56.5 54% 29.91 1011.0
29 04:55 Calm 10.00 Fair CLR 77.2 57 85.1 75.4 50% 79 29.9 1010.6
29 03:55 Calm 10.00 Fair CLR 75.6 56.7 52% 78 29.89 1010.2
29 02:55 Calm 10.00 Fair CLR 77.7 58.1 51% 79 29.89 1010.1
29 01:55 NW 6 10.00 Fair CLR 78.6 59 51% 80 29.89 1010.1
29 00:55 Calm 10.00 Fair CLR 79.5 56.8 46% 80 29.9 1010.5
28 23:55 Calm 10.00 Fair CLR 82.8 55.9 40% 82 29.9 1010.5
28 22:55 W 3 10.00 Fair CLR 85.1 56.7 100.2 83.8 38% 84 29.9 1010.5
28 21:55 N 6 10.00 Fair CLR 84.9 57.2 39% 84 29.89 1010.3
28 20:55 N 9 10.00 Fair CLR 86.7 56.5 36% 85 29.88 1009.9
28 19:55 NW 7 10.00 Fair CLR 89.8 57.6 34% 89 29.86 1009.3
28 18:55 NW 6 10.00 Fair CLR 94.5 54.1 26% 92 29.86 1009.2
28 17:55 NW 15 G 23 10.00 Fair CLR 97.2 53.1 23% 95 29.86 1009.2
28 16:55 NW 16 10.00 Fair CLR 100.4 53.2 104.5 95.5 21% 98 29.84 1008.6
28 15:55 NW 14 G 23 10.00 Fair CLR 102.2 52 19% 100 29.84 1008.5
28 14:55 NW 13 10.00 Fair CLR 104.2 55 20% 103 29.86 1009.1
28 13:55 NW 10 10.00 A Few Clouds FEW180 102.9 55.4 21% 102 29.88 1009.8
28 12:55 NW 8 10.00 Fair CLR 102.4 56.3 22% 101 29.9 1010.5
28 10:55 Calm 10.00 Fair CLR 95.9 58.5 95.9 76.3 29% 95 29.92 1011.2
28 09:55 Calm 10.00 Fair CLR 92.5 60.8 35% 92 29.93 1011.6
Date Time (pdt) Wind (mph) Vis. (mi.) Weather Sky Cond. Air Dwpt Max. Min. Relative Humidity Wind Chill (°F) Heat Index (°F) altimeter (in) sea level (mb) 1 hr 3 hr 6 hr
6 hour
Temperature (ºF) Pressure Precipitation (in)